Andrews, NC

12:32 AM EDT on August 20, 2017 (GMT -0400)
Andrews

Weather History for KRHP - January, 2014

Change the Weather History Date:

Monday, January 13, 2014

  Actual Average (KMMI) Record (KMMI)
Temperature  
Mean Temperature 40 °F -  
Max Temperature 52 °F 43 °F 68 °F (2017)
Min Temperature 27 °F 23 °F 15 °F (2016)
Degree Days  
Heating Degree Days 26    
Moisture  
Dew Point 34 °F    
Average Humidity 85    
Maximum Humidity 99    
Minimum Humidity 47    
Precipitation  
Precipitation 0.10 in - - ()
Sea Level Pressure  
Sea Level Pressure 30.04 in    
Wind  
Wind Speed 1 mph (WSW)    
Max Wind Speed 8 mph    
Max Gust Speed -    
Visibility 10 miles    
Events Rain    
Averages and records for this station are not official NWS values.
T = Trace of Precipitation, MM = Missing Value Source: NWS Daily Summary

Daily Weather History Graph

Daily Weather History Graph

Search for Another Location

Airport or City:

Trip Planner

Search our weather history database for the weather conditions in past years. The results will help you decide how hot, cold, wet, or windy it might be!

Date:

Astronomy

Jan. 13, 2014 Rise Set
Actual Time 7:43 AM EST 5:44 PM EST
Civil Twilight 7:16 AM EST 6:12 PM EST
Nautical Twilight 6:44 AM EST 6:43 PM EST
Astronomical Twilight 6:14 AM EST 7:14 PM EST
Moon 3:58 PM EST (1/13) 5:32 AM EST (1/13)
Length of Visible Light 10h 56m
Length of Day
10h 00m
Waxing Gibbous, 95% of the Moon is Illuminated
Jan 13
Waxing Gibbous
Jan 15
Full
Jan 24
Last Quarter
Jan 30
New
Feb 6
First Quarter

Hourly Weather History & Observations

Time (EST) Temp. Windchill Dew Point Humidity Pressure Visibility Wind Dir Wind Speed Gust Speed Precip Events Conditions
12:15 AM 29.1 °F - 28.4 °F 97% 30.16 in 10.0 mi Calm Calm - N/A   Clear
12:35 AM 28.8 °F - 27.9 °F 96% 30.16 in 10.0 mi Calm Calm - N/A   Clear
12:55 AM 28.9 °F - 28.2 °F 97% 30.16 in 10.0 mi Calm Calm - N/A   Clear
1:15 AM 27.0 °F - 26.2 °F 97% 30.16 in 10.0 mi Calm Calm - N/A   Clear
1:35 AM 28.6 °F - 27.7 °F 96% 30.16 in 10.0 mi Calm Calm - N/A   Clear
1:55 AM 27.3 °F - 26.8 °F 98% 30.17 in 10.0 mi Calm Calm - N/A   Clear
2:15 AM 28.0 °F - 27.5 °F 98% 30.16 in 10.0 mi Calm Calm - N/A   Clear
2:35 AM 28.2 °F - 27.5 °F 97% 30.16 in 10.0 mi Calm Calm - N/A   Clear
2:55 AM 27.7 °F - 26.8 °F 96% 30.17 in 10.0 mi Calm Calm - N/A   Clear
3:15 AM 27.5 °F - 27.0 °F 98% 30.16 in 10.0 mi Calm Calm - N/A   Clear
3:35 AM 27.7 °F - 27.1 °F 98% 30.16 in 10.0 mi Calm Calm - N/A   Clear
3:55 AM 27.3 °F - 26.2 °F 96% 30.16 in 10.0 mi Calm Calm - N/A   Clear
4:15 AM 28.4 °F - 27.7 °F 97% 30.16 in 10.0 mi Calm Calm - N/A   Clear
4:35 AM 28.2 °F - 27.5 °F 97% 30.16 in 10.0 mi Calm Calm - N/A   Clear
4:55 AM 28.4 °F - 27.7 °F 97% 30.15 in 10.0 mi Calm Calm - N/A   Clear
5:15 AM 28.4 °F - 27.9 °F 98% 30.14 in 10.0 mi Calm Calm - N/A   Clear
5:35 AM 28.9 °F - 28.2 °F 97% 30.13 in 10.0 mi Calm Calm - N/A   Clear
5:55 AM 28.9 °F - 28.2 °F 97% 30.12 in 10.0 mi Calm Calm - N/A   Clear
6:15 AM 28.4 °F - 27.7 °F 97% 30.12 in 10.0 mi Calm Calm - N/A   Clear
6:35 AM 28.6 °F - 27.7 °F 96% 30.10 in 10.0 mi Calm Calm - N/A   Clear
6:55 AM 28.2 °F - 27.5 °F 97% 30.08 in 10.0 mi Calm Calm - N/A   Clear
7:15 AM 29.1 °F 24.1 °F 28.6 °F 98% 30.08 in 10.0 mi WSW 4.6 mph - N/A   Clear
7:35 AM 29.3 °F - 28.9 °F 99% 30.09 in 10.0 mi Calm Calm - N/A   Clear
7:55 AM 30.0 °F - 29.5 °F 98% 30.12 in 10.0 mi Calm Calm - N/A   Clear
8:15 AM 30.6 °F - 30.0 °F 98% 30.12 in 10.0 mi Calm Calm - N/A   Clear
8:35 AM 31.1 °F 26.4 °F 30.6 °F 98% 30.13 in 10.0 mi WSW 4.6 mph - N/A   Clear
8:55 AM 31.8 °F - 31.1 °F 97% 30.12 in 10.0 mi Calm Calm - N/A   Clear
9:15 AM 33.1 °F - 32.0 °F 96% 30.13 in 10.0 mi Calm Calm - N/A   Clear
9:35 AM 34.0 °F - 32.2 °F 93% 30.13 in 10.0 mi Calm Calm - N/A   Clear
9:55 AM 35.2 °F 32.4 °F 32.7 °F 91% 30.12 in 10.0 mi East 3.5 mph - N/A   Clear
10:15 AM 36.5 °F - 33.4 °F 89% 30.12 in 10.0 mi Calm Calm - N/A   Scattered Clouds
10:35 AM 39.2 °F - 35.2 °F 86% 30.10 in 10.0 mi Calm Calm - N/A   Overcast
10:55 AM 40.1 °F 38.0 °F 35.4 °F 83% 30.10 in 10.0 mi WSW 3.5 mph - N/A   Overcast
11:15 AM 40.6 °F - 36.1 °F 84% 30.09 in 10.0 mi Calm Calm - N/A   Overcast
11:35 AM 41.9 °F - 36.1 °F 80% 30.07 in 10.0 mi Calm Calm - N/A   Overcast
11:55 AM 43.3 °F - 36.9 °F 78% 30.06 in 10.0 mi Calm Calm - N/A   Mostly Cloudy
12:15 PM 45.1 °F - 37.8 °F 75% 30.05 in 10.0 mi Calm Calm - N/A   Overcast
12:35 PM 46.8 °F - 37.8 °F 71% 30.03 in 10.0 mi Calm Calm - N/A   Overcast
12:55 PM 48.4 °F - 36.3 °F 63% 30.00 in 10.0 mi Calm Calm - N/A   Overcast
1:15 PM 49.1 °F - 36.7 °F 62% 30.00 in 10.0 mi Calm Calm - N/A   Overcast
1:35 PM 50.7 °F - 36.7 °F 59% 29.98 in 10.0 mi Calm Calm - N/A   Overcast
1:55 PM 52.0 °F - 35.6 °F 54% 29.97 in 10.0 mi Calm Calm - N/A   Mostly Cloudy
2:15 PM 52.3 °F - 34.0 °F 50% 29.97 in 10.0 mi West 8.1 mph - N/A   Mostly Cloudy
2:35 PM 52.2 °F - 34.3 °F 51% 29.97 in 10.0 mi West 6.9 mph - N/A   Mostly Cloudy
2:55 PM 52.3 °F - 34.5 °F 51% 29.96 in 10.0 mi West 5.8 mph - N/A   Scattered Clouds
3:15 PM 52.7 °F - 32.9 °F 47% 29.95 in 10.0 mi Calm Calm - N/A   Scattered Clouds
3:35 PM 52.3 °F - 33.6 °F 49% 29.94 in 10.0 mi Calm Calm - N/A   Overcast
3:55 PM 51.3 °F - 35.8 °F 55% 29.94 in 10.0 mi WSW 3.5 mph - N/A   Overcast
4:15 PM 50.9 °F - 34.3 °F 53% 29.95 in 10.0 mi SW 3.5 mph - N/A   Overcast
4:35 PM 50.5 °F - 34.2 °F 53% 29.94 in 10.0 mi WSW 4.6 mph - N/A   Overcast
4:55 PM 51.8 °F - 31.8 °F 47% 29.92 in 10.0 mi Calm Calm - N/A   Overcast
5:15 PM 48.6 °F - 37.4 °F 65% 29.91 in 10.0 mi West 3.5 mph - N/A Rain Light Rain
5:35 PM 48.7 °F - 34.5 °F 58% 29.91 in 10.0 mi SW 8.1 mph - N/A   Drizzle
5:55 PM 46.0 °F 43.1 °F 38.8 °F 76% 29.92 in 10.0 mi WSW 5.8 mph - 0.01 in Rain Rain
6:15 PM 44.8 °F - 40.1 °F 84% 29.93 in 10.0 mi Calm Calm - 0.01 in Rain Light Rain
6:35 PM 44.8 °F 42.4 °F 40.5 °F 85% 29.94 in 10.0 mi WNW 4.6 mph - 0.01 in   Drizzle
6:55 PM 43.5 °F - 40.6 °F 90% 29.94 in 10.0 mi Calm Calm - 0.02 in Rain Light Rain
7:15 PM 43.2 °F 40.5 °F 40.8 °F 91% 29.95 in 10.0 mi SW 4.6 mph - N/A   Light Drizzle
7:35 PM 44.4 °F 42.9 °F 39.6 °F 83% 29.95 in 10.0 mi SW 3.5 mph - 0.01 in Rain Light Rain
7:55 PM 43.7 °F 39.7 °F 40.6 °F 89% 29.96 in 7.0 mi West 6.9 mph - 0.03 in Rain Light Rain
8:15 PM 43.0 °F - 41.4 °F 94% 29.96 in 7.0 mi Calm Calm - 0.01 in Rain Light Rain
8:35 PM 42.8 °F - 41.5 °F 95% 29.95 in 5.0 mi Calm Calm - 0.02 in   Drizzle
8:55 PM 43.0 °F - 41.5 °F 95% 29.95 in 7.0 mi Calm Calm - 0.03 in   Drizzle
9:15 PM 42.8 °F - 41.9 °F 97% 29.95 in 7.0 mi Calm Calm - N/A   Light Drizzle
9:35 PM 42.4 °F - 41.9 °F 98% 29.94 in 10.0 mi Calm Calm - N/A Rain Rain
9:55 PM 42.4 °F - 41.9 °F 98% 29.94 in 10.0 mi Calm Calm - N/A   Overcast
10:15 PM 42.3 °F - 41.7 °F 98% 29.94 in 10.0 mi Calm Calm - N/A   Overcast
10:35 PM 42.3 °F - 41.9 °F 99% 29.94 in 10.0 mi Calm Calm - N/A   Overcast
10:55 PM 42.3 °F - 41.9 °F 99% 29.93 in 10.0 mi Calm Calm - N/A   Overcast
11:15 PM 42.1 °F - 41.9 °F 99% 29.91 in 10.0 mi Calm Calm - 0.01 in   Overcast
11:35 PM 42.1 °F - 41.9 °F 99% 29.90 in 10.0 mi Calm Calm - 0.01 in   Overcast
11:55 PM 42.1 °F - 41.9 °F 99% 29.89 in 10.0 mi Calm Calm - 0.01 in   Drizzle